{"data":{"norad_id":57532,"intl_designator":"2023-115M","name":"STARLINK-30251","alt_names":[],"object_type":"PAYLOAD","status":"ACTIVE","operator":null,"country":"US","launch_date":"2023-08-08","launch_site_code":"AFWTR","launch_vehicle":null,"mission":null,"orbit_class":"UNKNOWN","rcs_meters":null,"size_class":null,"mass_kg":null,"dimensions":null,"purposes":["comms"],"wikipedia_slug":null,"has_3d_model":false,"image_url":null,"decayed_at":null,"tle_current":{"epoch":"2026-05-25T02:57:08.703360Z","epoch_age_seconds":71333,"freshness":"FRESH","line1":"1 57532U 23115M   26145.12301740  .00000304  00000+0  20560-4 0  9993","line2":"2 57532  43.0025 289.7080 0001523 269.0663  91.0014 15.27575205154043","mean_motion":15.27575205,"eccentricity":0.0001523,"inclination_deg":43.0025,"raan_deg":289.708,"arg_perigee_deg":269.0663,"mean_anomaly_deg":91.0014,"bstar":2.056e-5,"rev_number":15404,"period_min":94.267044613362,"perigee_km":482.01849320305,"apogee_km":484.10841486135,"semimajor_km":6861.2004540322,"source":"CELESTRAK","updated_at":"2026-05-25T13:38:18.334320Z"}}}